Time,TemperatureF,DewpointF,PressureIn,WindDirection,WindDirectionDegrees,WindSpeedMPH,WindSpeedGustMPH,Humidity,HourlyPrecipIn,Conditions,Clouds,dailyrainin,SoftwareType,DateUTC
2013-01-27 00:01:00,28.8,18.9,30.26,SW,217,4.0,4.0,66,0.00,,,0.00,Wunderground v.1.15,2013-01-27 06:01:00,
2013-01-27 00:07:00,28.7,18.8,30.26,SSW,199,4.0,5.0,66,0.00,,,0.00,Wunderground v.1.15,2013-01-27 06:07:00,
2013-01-27 00:13:00,28.7,18.8,30.26,SSW,195,4.0,4.0,66,0.00,,,0.00,Wunderground v.1.15,2013-01-27 06:13:00,
2013-01-27 00:19:00,28.5,18.9,30.25,SSE,167,3.0,4.0,67,0.00,,,0.00,Wunderground v.1.15,2013-01-27 06:19:00,
2013-01-27 00:24:00,28.4,18.8,30.25,SSW,196,2.0,3.0,67,0.00,,,0.00,Wunderground v.1.15,2013-01-27 06:24:00,
2013-01-27 00:31:00,28.3,18.7,30.25,WSW,252,2.0,8.0,67,0.00,,,0.00,Wunderground v.1.15,2013-01-27 06:31:00,
2013-01-27 00:37:00,28.3,19.1,30.25,WSW,241,3.0,9.0,68,0.00,,,0.00,Wunderground v.1.15,2013-01-27 06:37:00,
2013-01-27 00:42:00,28.4,18.8,30.25,South,169,3.0,8.0,67,0.00,,,0.00,Wunderground v.1.15,2013-01-27 06:42:00,
2013-01-27 00:47:00,28.3,19.1,30.25,SSW,198,2.0,8.0,68,0.00,,,0.00,Wunderground v.1.15,2013-01-27 06:47:00,
2013-01-27 00:52:00,28.3,19.1,30.25,SSW,200,2.0,8.0,68,0.00,,,0.00,Wunderground v.1.15,2013-01-27 06:52:00,
2013-01-27 00:58:00,28.5,18.9,30.25,South,172,3.0,8.0,67,0.00,,,0.00,Wunderground v.1.15,2013-01-27 06:58:00,
2013-01-27 01:04:00,28.6,19.0,30.25,SSW,204,3.0,8.0,67,0.00,,,0.00,Wunderground v.1.15,2013-01-27 07:04:00,
2013-01-27 01:14:00,28.7,19.5,30.25,South,187,3.0,8.0,68,0.00,,,0.00,Wunderground v.1.15,2013-01-27 07:14:00,
2013-01-27 01:20:00,28.7,19.5,30.24,SSE,166,3.0,8.0,68,0.00,,,0.00,Wunderground v.1.15,2013-01-27 07:20:00,
2013-01-27 01:26:00,28.8,19.6,30.24,South,175,2.0,8.0,68,0.00,,,0.00,Wunderground v.1.15,2013-01-27 07:26:00,
2013-01-27 01:32:00,28.8,19.6,30.25,South,186,3.0,8.0,68,0.00,,,0.00,Wunderground v.1.15,2013-01-27 07:32:00,
2013-01-27 01:37:00,29.0,19.4,30.25,SW,233,3.0,8.0,67,0.00,,,0.00,Wunderground v.1.15,2013-01-27 07:37:00,
2013-01-27 01:43:00,29.1,19.5,30.25,SSW,196,2.0,8.0,67,0.00,,,0.00,Wunderground v.1.15,2013-01-27 07:43:00,
2013-01-27 01:49:00,29.3,19.3,30.25,WSW,237,2.0,8.0,66,0.00,,,0.00,Wunderground v.1.15,2013-01-27 07:49:00,
2013-01-27 01:55:00,29.5,19.5,30.25,SSW,210,3.0,8.0,66,0.00,,,0.00,Wunderground v.1.15,2013-01-27 07:55:00,
2013-01-27 02:00:00,29.6,19.6,30.25,South,172,3.0,8.0,66,0.00,,,0.00,Wunderground v.1.15,2013-01-27 08:00:00,
2013-01-27 02:06:00,29.7,20.1,30.24,South,179,3.0,8.0,67,0.00,,,0.00,Wunderground v.1.15,2013-01-27 08:06:00,
2013-01-27 02:12:00,29.8,19.8,30.25,SSW,195,3.0,8.0,66,0.00,,,0.00,Wunderground v.1.15,2013-01-27 08:12:00,
2013-01-27 02:18:00,29.9,19.9,30.24,SSW,194,3.0,8.0,66,0.00,,,0.00,Wunderground v.1.15,2013-01-27 08:18:00,
2013-01-27 02:24:00,30.1,20.1,30.25,SSW,200,3.0,8.0,66,0.00,,,0.00,Wunderground v.1.15,2013-01-27 08:24:00,
2013-01-27 02:30:00,30.2,20.2,30.24,South,175,4.0,4.0,66,0.00,,,0.00,Wunderground v.1.15,2013-01-27 08:30:00,
2013-01-27 02:36:00,30.3,20.3,30.24,SW,219,4.0,8.0,66,0.00,,,0.00,Wunderground v.1.15,2013-01-27 08:36:00,
2013-01-27 02:41:00,30.4,20.4,30.24,SSW,192,4.0,8.0,66,0.00,,,0.00,Wunderground v.1.15,2013-01-27 08:41:00,
2013-01-27 02:47:00,30.5,20.1,30.23,South,190,4.0,8.0,65,0.00,,,0.00,Wunderground v.1.15,2013-01-27 08:47:00,
2013-01-27 02:53:00,30.6,20.2,30.23,South,177,4.0,8.0,65,0.00,,,0.00,Wunderground v.1.15,2013-01-27 08:53:00,
2013-01-27 02:59:00,30.7,20.3,30.23,SW,217,4.0,8.0,65,0.00,,,0.00,Wunderground v.1.15,2013-01-27 08:59:00,
2013-01-27 03:04:00,30.8,20.4,30.22,South,187,5.0,8.0,65,0.00,,,0.00,Wunderground v.1.15,2013-01-27 09:04:00,
2013-01-27 03:10:00,30.9,20.1,30.22,WSW,245,5.0,8.0,64,0.00,,,0.00,Wunderground v.1.15,2013-01-27 09:10:00,
2013-01-27 03:16:00,30.9,20.1,30.22,SSW,196,5.0,9.0,64,0.00,,,0.00,Wunderground v.1.15,2013-01-27 09:16:00,
2013-01-27 03:22:00,30.9,20.1,30.21,SW,223,5.0,8.0,64,0.00,,,0.00,Wunderground v.1.15,2013-01-27 09:22:00,
2013-01-27 03:27:00,31.0,20.2,30.21,South,183,5.0,8.0,64,0.00,,,0.00,Wunderground v.1.15,2013-01-27 09:27:00,
2013-01-27 03:33:00,31.0,20.2,30.21,SSW,207,5.0,9.0,64,0.00,,,0.00,Wunderground v.1.15,2013-01-27 09:33:00,
2013-01-27 03:39:00,31.0,20.2,30.20,South,190,5.0,9.0,64,0.00,,,0.00,Wunderground v.1.15,2013-01-27 09:39:00,
2013-01-27 03:45:00,31.1,20.3,30.20,SW,226,5.0,8.0,64,0.00,,,0.00,Wunderground v.1.15,2013-01-27 09:45:00,
2013-01-27 03:51:00,31.2,20.4,30.20,SSW,212,4.0,8.0,64,0.00,,,0.00,Wunderground v.1.15,2013-01-27 09:51:00,
2013-01-27 03:57:00,31.2,20.4,30.19,South,188,4.0,8.0,64,0.00,,,0.00,Wunderground v.1.15,2013-01-27 09:57:00,
2013-01-27 04:03:00,31.1,20.7,30.20,South,184,3.0,8.0,65,0.00,,,0.00,Wunderground v.1.15,2013-01-27 10:03:00,
2013-01-27 04:08:00,31.1,20.7,30.19,SSW,196,3.0,8.0,65,0.00,,,0.00,Wunderground v.1.15,2013-01-27 10:08:00,
2013-01-27 04:14:00,31.2,20.8,30.19,South,182,3.0,8.0,65,0.00,,,0.00,Wunderground v.1.15,2013-01-27 10:14:00,
2013-01-27 04:20:00,31.2,20.8,30.18,South,180,3.0,8.0,65,0.00,,,0.00,Wunderground v.1.15,2013-01-27 10:20:00,
2013-01-27 04:26:00,31.1,21.1,30.18,SW,233,3.0,8.0,66,0.00,,,0.00,Wunderground v.1.15,2013-01-27 10:26:00,
2013-01-27 04:31:00,31.1,21.1,30.18,SSW,197,3.0,5.0,66,0.00,,,0.00,Wunderground v.1.15,2013-01-27 10:31:00,
2013-01-27 04:37:00,31.1,21.1,30.18,SSW,203,4.0,8.0,66,0.00,,,0.00,Wunderground v.1.15,2013-01-27 10:37:00,
2013-01-27 04:43:00,31.3,21.3,30.19,SSE,161,5.0,8.0,66,0.00,,,0.00,Wunderground v.1.15,2013-01-27 10:43:00,
2013-01-27 04:49:00,31.5,21.4,30.19,SW,217,7.0,8.0,66,0.00,,,0.00,Wunderground v.1.15,2013-01-27 10:49:00,
2013-01-27 04:54:00,31.7,21.6,30.18,SW,217,7.0,8.0,66,0.00,,,0.00,Wunderground v.1.15,2013-01-27 10:54:00,
2013-01-27 05:00:00,31.8,21.4,30.18,SSW,213,7.0,8.0,65,0.00,,,0.00,Wunderground v.1.15,2013-01-27 11:00:00,
2013-01-27 05:06:00,32.0,21.6,30.17,SW,217,7.0,9.0,65,0.00,,,0.00,Wunderground v.1.15,2013-01-27 11:06:00,
2013-01-27 05:11:00,32.0,21.9,30.17,South,184,6.0,11.0,66,0.00,,,0.00,Wunderground v.1.15,2013-01-27 11:11:00,
2013-01-27 05:17:00,31.9,22.5,30.17,SSW,192,5.0,11.0,68,0.00,,,0.00,Wunderground v.1.15,2013-01-27 11:17:00,
2013-01-27 05:23:00,31.7,22.7,30.16,South,178,5.0,8.0,69,0.00,,,0.00,Wunderground v.1.15,2013-01-27 11:23:00,
2013-01-27 05:29:00,31.6,23.3,30.16,South,190,5.0,9.0,71,0.00,,,0.00,Wunderground v.1.15,2013-01-27 11:29:00,
2013-01-27 05:34:00,31.5,23.8,30.16,SSW,194,5.0,8.0,73,0.00,,,0.00,Wunderground v.1.15,2013-01-27 11:34:00,
2013-01-27 05:40:00,31.5,24.5,30.16,SSW,193,5.0,8.0,75,0.00,,,0.00,Wunderground v.1.15,2013-01-27 11:40:00,
2013-01-27 05:46:00,31.5,25.1,30.15,SSW,208,5.0,8.0,77,0.00,,,0.00,Wunderground v.1.15,2013-01-27 11:46:00,
2013-01-27 05:52:00,31.5,25.4,30.15,SW,221,5.0,8.0,78,0.00,,,0.00,Wunderground v.1.15,2013-01-27 11:52:00,
2013-01-27 05:57:00,31.5,25.4,30.15,South,181,5.0,8.0,78,0.00,,,0.00,Wunderground v.1.15,2013-01-27 11:57:00,
2013-01-27 06:03:00,31.5,26.0,30.16,SW,217,6.0,9.0,80,0.00,,,0.00,Wunderground v.1.15,2013-01-27 12:03:00,
2013-01-27 06:08:00,31.5,26.3,30.16,SW,221,6.0,11.0,81,0.00,,,0.00,Wunderground v.1.15,2013-01-27 12:08:00,
2013-01-27 06:14:00,31.5,26.3,30.16,South,182,6.0,8.0,81,0.00,,,0.00,Wunderground v.1.15,2013-01-27 12:14:00,
2013-01-27 06:19:00,31.5,26.3,30.16,SSW,193,5.0,8.0,81,0.00,,,0.00,Wunderground v.1.15,2013-01-27 12:19:00,
2013-01-27 06:25:00,31.5,26.6,30.16,South,174,4.0,8.0,82,0.00,,,0.00,Wunderground v.1.15,2013-01-27 12:25:00,
2013-01-27 06:31:00,31.5,26.6,30.16,SSW,194,3.0,8.0,82,0.00,,,0.00,Wunderground v.1.15,2013-01-27 12:31:00,
2013-01-27 06:37:00,31.5,26.9,30.17,South,176,2.0,8.0,83,0.00,,,0.00,Wunderground v.1.15,2013-01-27 12:37:00,
2013-01-27 06:43:00,31.7,27.4,30.17,South,173,3.0,8.0,84,0.00,,,0.00,Wunderground v.1.15,2013-01-27 12:43:00,
2013-01-27 06:49:00,31.7,27.4,30.18,SSE,167,3.0,8.0,84,0.00,,,0.00,Wunderground v.1.15,2013-01-27 12:49:00,
2013-01-27 06:55:00,31.7,27.7,30.18,South,174,2.0,8.0,85,0.12,,,0.02,Wunderground v.1.15,2013-01-27 12:55:00,
2013-01-27 07:01:00,31.8,28.1,30.18,South,186,1.0,8.0,86,0.10,,,0.03,Wunderground v.1.15,2013-01-27 13:01:00,
2013-01-27 07:07:00,31.8,28.1,30.18,SSW,211,2.0,8.0,86,0.12,,,0.04,Wunderground v.1.15,2013-01-27 13:07:00,
2013-01-27 07:13:00,31.7,28.3,30.18,SW,230,2.0,8.0,87,0.08,,,0.04,Wunderground v.1.15,2013-01-27 13:13:00,
2013-01-27 07:19:00,31.7,28.6,30.17,WSW,248,2.0,8.0,88,0.05,,,0.05,Wunderground v.1.15,2013-01-27 13:19:00,
2013-01-27 07:25:00,31.8,28.9,30.17,SW,229,2.0,8.0,89,0.07,,,0.06,Wunderground v.1.15,2013-01-27 13:25:00,
2013-01-27 07:30:00,31.8,28.9,30.17,SW,218,2.0,8.0,89,0.07,,,0.06,Wunderground v.1.15,2013-01-27 13:30:00,
2013-01-27 07:35:00,31.9,29.0,30.16,SSW,196,3.0,8.0,89,0.06,,,0.06,Wunderground v.1.15,2013-01-27 13:35:00,
2013-01-27 07:41:00,31.8,29.2,30.16,WSW,251,3.0,3.0,90,0.04,,,0.06,Wunderground v.1.15,2013-01-27 13:41:00,
2013-01-27 07:47:00,31.8,29.2,30.16,SW,214,2.0,8.0,90,0.00,,,0.06,Wunderground v.1.15,2013-01-27 13:47:00,
2013-01-27 07:52:00,31.8,29.2,30.16,SSW,200,2.0,8.0,90,0.00,,,0.07,Wunderground v.1.15,2013-01-27 13:52:00,
2013-01-27 07:58:00,31.8,29.5,30.15,SSW,200,2.0,8.0,91,0.00,,,0.07,Wunderground v.1.15,2013-01-27 13:58:00,
2013-01-27 08:04:00,31.8,29.5,30.15,SSE,148,4.0,8.0,91,0.05,,,0.08,Wunderground v.1.15,2013-01-27 14:04:00,
2013-01-27 08:10:00,31.7,29.4,30.14,SSE,148,5.0,8.0,91,0.05,,,0.08,Wunderground v.1.15,2013-01-27 14:10:00,
2013-01-27 08:15:00,31.6,29.3,30.13,SSE,148,5.0,8.0,91,0.04,,,0.08,Wunderground v.1.15,2013-01-27 14:15:00,
2013-01-27 08:21:00,31.5,29.2,30.12,SSE,148,5.0,8.0,91,0.00,,,0.08,Wunderground v.1.15,2013-01-27 14:21:00,
2013-01-27 08:27:00,31.4,29.1,30.11,SSE,148,5.0,8.0,91,0.00,,,0.08,Wunderground v.1.15,2013-01-27 14:27:00,
2013-01-27 08:33:00,31.4,29.1,30.11,SSE,148,5.0,8.0,91,0.00,,,0.08,Wunderground v.1.15,2013-01-27 14:33:00,
2013-01-27 08:38:00,31.4,29.3,30.11,SSE,148,5.0,9.0,92,0.00,,,0.08,Wunderground v.1.15,2013-01-27 14:38:00,
2013-01-27 08:44:00,31.4,29.3,30.10,SSE,148,4.0,8.0,92,0.00,,,0.08,Wunderground v.1.15,2013-01-27 14:44:00,
2013-01-27 08:50:00,31.5,29.4,30.09,SSE,148,5.0,8.0,92,0.00,,,0.08,Wunderground v.1.15,2013-01-27 14:50:00,
2013-01-27 08:55:00,31.6,29.5,30.10,SSE,148,6.0,8.0,92,0.00,,,0.08,Wunderground v.1.15,2013-01-27 14:55:00,
2013-01-27 09:01:00,31.7,29.6,30.10,SSE,148,5.0,8.0,92,0.00,,,0.08,Wunderground v.1.15,2013-01-27 15:01:00,
2013-01-27 09:07:00,31.8,29.7,30.10,SSE,148,5.0,8.0,92,0.00,,,0.08,Wunderground v.1.15,2013-01-27 15:07:00,
2013-01-27 09:13:00,31.9,29.8,30.10,SSE,148,5.0,8.0,92,0.00,,,0.08,Wunderground v.1.15,2013-01-27 15:13:00,
2013-01-27 09:18:00,32.1,30.0,30.10,SSE,148,6.0,8.0,92,0.00,,,0.08,Wunderground v.1.15,2013-01-27 15:18:00,
2013-01-27 09:24:00,32.2,30.1,30.10,SSE,148,6.0,8.0,92,0.00,,,0.08,Wunderground v.1.15,2013-01-27 15:24:00,
2013-01-27 09:30:00,32.2,30.1,30.09,SSE,148,6.0,8.0,92,0.00,,,0.08,Wunderground v.1.15,2013-01-27 15:30:00,
2013-01-27 09:36:00,32.3,30.2,30.09,SSE,148,5.0,8.0,92,0.00,,,0.08,Wunderground v.1.15,2013-01-27 15:36:00,
2013-01-27 09:41:00,32.3,30.2,30.09,SSE,148,6.0,8.0,92,0.00,,,0.08,Wunderground v.1.15,2013-01-27 15:41:00,
2013-01-27 09:47:00,32.4,30.6,30.09,SSE,148,7.0,9.0,93,0.00,,,0.08,Wunderground v.1.15,2013-01-27 15:47:00,
2013-01-27 09:53:00,32.5,30.7,30.09,SSE,148,8.0,10.0,93,0.00,,,0.08,Wunderground v.1.15,2013-01-27 15:53:00,
2013-01-27 09:59:00,32.5,30.7,30.08,SSE,148,7.0,10.0,93,0.00,,,0.09,Wunderground v.1.15,2013-01-27 15:59:00,
2013-01-27 10:05:00,32.5,30.7,30.08,SSE,148,6.0,9.0,93,0.00,,,0.09,Wunderground v.1.15,2013-01-27 16:05:00,
2013-01-27 10:11:00,32.6,30.8,30.08,SSE,149,6.0,10.0,93,0.00,,,0.09,Wunderground v.1.15,2013-01-27 16:11:00,
2013-01-27 10:17:00,32.7,30.9,30.08,SSE,149,7.0,10.0,93,0.00,,,0.10,Wunderground v.1.15,2013-01-27 16:17:00,
2013-01-27 10:22:00,32.8,31.0,30.08,SW,214,7.0,9.0,93,0.00,,,0.10,Wunderground v.1.15,2013-01-27 16:22:00,
2013-01-27 10:28:00,33.0,31.5,30.08,WSW,245,8.0,9.0,94,0.00,,,0.10,Wunderground v.1.15,2013-01-27 16:28:00,
2013-01-27 10:34:00,33.1,31.6,30.07,WSW,248,8.0,11.0,94,0.00,,,0.10,Wunderground v.1.15,2013-01-27 16:34:00,
2013-01-27 10:39:00,33.1,31.6,30.05,SSW,202,8.0,11.0,94,0.00,,,0.11,Wunderground v.1.15,2013-01-27 16:39:00,
2013-01-27 10:45:00,33.2,31.7,30.05,SSW,210,8.0,13.0,94,0.08,,,0.12,Wunderground v.1.15,2013-01-27 16:45:00,
2013-01-27 10:51:00,33.2,31.7,30.05,SW,221,8.0,10.0,94,0.07,,,0.12,Wunderground v.1.15,2013-01-27 16:51:00,
2013-01-27 10:57:00,33.3,31.8,30.04,SSW,202,8.0,15.0,94,0.04,,,0.13,Wunderground v.1.15,2013-01-27 16:57:00,
2013-01-27 11:02:00,33.3,31.8,30.03,SSW,211,9.0,11.0,94,0.04,,,0.13,Wunderground v.1.15,2013-01-27 17:02:00,
2013-01-27 11:08:00,33.5,32.0,30.03,SW,233,11.0,20.0,94,0.06,,,0.14,Wunderground v.1.15,2013-01-27 17:08:00,
2013-01-27 11:14:00,33.6,32.1,30.03,SW,215,11.0,14.0,94,0.06,,,0.14,Wunderground v.1.15,2013-01-27 17:14:00,
2013-01-27 11:21:00,33.7,32.2,30.03,SW,222,11.0,12.0,94,0.04,,,0.15,Wunderground v.1.15,2013-01-27 17:21:00,
2013-01-27 11:27:00,33.8,32.3,30.04,WSW,252,11.0,14.0,94,0.04,,,0.15,Wunderground v.1.15,2013-01-27 17:27:00,
2013-01-27 11:33:00,34.0,32.5,30.03,South,177,9.0,11.0,94,0.28,,,0.18,Wunderground v.1.15,2013-01-27 17:33:00,
2013-01-27 11:39:00,34.0,32.5,30.02,SW,217,11.0,20.0,94,0.75,,,0.23,Wunderground v.1.15,2013-01-27 17:39:00,
2013-01-27 11:45:00,34.2,32.7,30.01,WSW,242,12.0,13.0,94,0.16,,,0.26,Wunderground v.1.15,2013-01-27 17:45:00,
2013-01-27 11:50:00,34.5,33.0,30.00,WSW,246,12.0,13.0,94,0.10,,,0.27,Wunderground v.1.15,2013-01-27 17:50:00,
2013-01-27 11:56:00,34.7,33.2,29.99,SSW,211,12.0,16.0,94,0.07,,,0.27,Wunderground v.1.15,2013-01-27 17:56:00,
2013-01-27 12:02:00,34.8,33.2,29.99,SW,221,13.0,15.0,94,0.05,,,0.28,Wunderground v.1.15,2013-01-27 18:02:00,
2013-01-27 12:08:00,35.0,33.4,29.99,South,190,12.0,15.0,94,0.05,,,0.28,Wunderground v.1.15,2013-01-27 18:08:00,
2013-01-27 12:14:00,35.2,33.6,29.99,WSW,241,12.0,15.0,94,0.04,,,0.28,Wunderground v.1.15,2013-01-27 18:14:00,
2013-01-27 12:20:00,35.4,34.1,29.98,WSW,240,11.0,11.0,95,0.00,,,0.28,Wunderground v.1.15,2013-01-27 18:20:00,
2013-01-27 12:26:00,35.6,34.0,29.98,WSW,248,11.0,13.0,94,0.00,,,0.28,Wunderground v.1.15,2013-01-27 18:26:00,
2013-01-27 12:31:00,35.7,34.1,29.98,SW,231,10.0,11.0,94,0.00,,,0.28,Wunderground v.1.15,2013-01-27 18:31:00,
2013-01-27 12:37:00,36.0,34.7,29.98,SW,227,11.0,15.0,95,0.00,,,0.28,Wunderground v.1.15,2013-01-27 18:37:00,
2013-01-27 12:43:00,36.0,34.4,29.97,SW,222,12.0,20.0,94,0.00,,,0.28,Wunderground v.1.15,2013-01-27 18:43:00,
2013-01-27 12:49:00,36.1,34.5,29.97,WSW,252,12.0,20.0,94,0.00,,,0.28,Wunderground v.1.15,2013-01-27 18:49:00,
2013-01-27 12:54:00,36.2,34.6,29.97,WSW,242,12.0,13.0,94,0.00,,,0.28,Wunderground v.1.15,2013-01-27 18:54:00,
2013-01-27 13:00:00,36.3,34.7,29.96,SSW,204,11.0,11.0,94,0.00,,,0.28,Wunderground v.1.15,2013-01-27 19:00:00,
2013-01-27 13:06:00,36.4,34.8,29.97,SSW,207,12.0,18.0,94,0.00,,,0.28,Wunderground v.1.15,2013-01-27 19:06:00,
2013-01-27 13:12:00,36.6,35.0,29.96,SW,236,10.0,11.0,94,0.00,,,0.28,Wunderground v.1.15,2013-01-27 19:12:00,
2013-01-27 13:18:00,36.6,35.0,29.95,SW,231,8.0,13.0,94,0.00,,,0.28,Wunderground v.1.15,2013-01-27 19:18:00,
2013-01-27 13:24:00,36.6,35.0,29.95,SSW,196,9.0,10.0,94,0.00,,,0.28,Wunderground v.1.15,2013-01-27 19:24:00,
2013-01-27 13:30:00,36.8,35.2,29.95,SW,233,9.0,10.0,94,0.00,,,0.28,Wunderground v.1.15,2013-01-27 19:30:00,
2013-01-27 13:35:00,37.0,35.4,29.96,SW,221,8.0,9.0,94,0.00,,,0.28,Wunderground v.1.15,2013-01-27 19:35:00,
2013-01-27 13:41:00,37.2,35.9,29.95,SW,221,8.0,8.0,95,0.00,,,0.28,Wunderground v.1.15,2013-01-27 19:41:00,
2013-01-27 13:47:00,37.3,36.0,29.94,WSW,242,8.0,11.0,95,0.00,,,0.28,Wunderground v.1.15,2013-01-27 19:47:00,
2013-01-27 13:53:00,37.4,36.1,29.94,WSW,247,9.0,11.0,95,0.00,,,0.28,Wunderground v.1.15,2013-01-27 19:53:00,
2013-01-27 13:58:00,37.5,36.2,29.94,SW,221,8.0,11.0,95,0.00,,,0.28,Wunderground v.1.15,2013-01-27 19:58:00,
2013-01-27 14:03:00,37.6,36.3,29.94,SW,224,8.0,12.0,95,0.00,,,0.28,Wunderground v.1.15,2013-01-27 20:03:00,
2013-01-27 14:09:00,37.6,36.3,29.94,WSW,248,8.0,12.0,95,0.00,,,0.28,Wunderground v.1.15,2013-01-27 20:09:00,
2013-01-27 14:15:00,37.7,36.4,29.93,SW,232,8.0,13.0,95,0.00,,,0.28,Wunderground v.1.15,2013-01-27 20:15:00,
2013-01-27 14:20:00,37.8,36.5,29.93,SW,216,8.0,8.0,95,0.00,,,0.28,Wunderground v.1.15,2013-01-27 20:20:00,
2013-01-27 14:25:00,38.1,36.8,29.93,South,173,7.0,11.0,95,0.00,,,0.28,Wunderground v.1.15,2013-01-27 20:25:00,
2013-01-27 14:31:00,38.3,37.0,29.93,SW,218,7.0,8.0,95,0.00,,,0.28,Wunderground v.1.15,2013-01-27 20:31:00,
2013-01-27 14:37:00,38.4,37.1,29.93,SW,232,6.0,9.0,95,0.00,,,0.28,Wunderground v.1.15,2013-01-27 20:37:00,
2013-01-27 14:43:00,38.4,37.1,29.92,South,183,6.0,8.0,95,0.00,,,0.28,Wunderground v.1.15,2013-01-27 20:43:00,
2013-01-27 14:48:00,38.3,37.0,29.92,South,179,7.0,12.0,95,0.00,,,0.28,Wunderground v.1.15,2013-01-27 20:48:00,
2013-01-27 14:54:00,38.4,37.1,29.92,SW,225,8.0,9.0,95,0.00,,,0.28,Wunderground v.1.15,2013-01-27 20:54:00,
2013-01-27 15:00:00,38.7,37.4,29.91,South,188,8.0,10.0,95,0.00,,,0.28,Wunderground v.1.15,2013-01-27 21:00:00,
2013-01-27 15:06:00,38.8,37.5,29.91,SW,220,9.0,13.0,95,0.00,,,0.28,Wunderground v.1.15,2013-01-27 21:06:00,
2013-01-27 15:11:00,39.1,37.8,29.91,SW,225,9.0,10.0,95,0.00,,,0.28,Wunderground v.1.15,2013-01-27 21:11:00,
2013-01-27 15:17:00,39.3,38.0,29.90,SW,220,9.0,11.0,95,0.00,,,0.28,Wunderground v.1.15,2013-01-27 21:17:00,
2013-01-27 15:22:00,39.4,38.1,29.90,SW,229,9.0,11.0,95,0.00,,,0.28,Wunderground v.1.15,2013-01-27 21:22:00,
2013-01-27 15:28:00,39.5,38.2,29.90,SSW,211,10.0,11.0,95,0.00,,,0.28,Wunderground v.1.15,2013-01-27 21:28:00,
2013-01-27 15:34:00,39.5,38.2,29.89,SW,217,10.0,11.0,95,0.00,,,0.28,Wunderground v.1.15,2013-01-27 21:34:00,
2013-01-27 15:40:00,39.6,38.3,29.89,SW,225,10.0,12.0,95,0.00,,,0.28,Wunderground v.1.15,2013-01-27 21:40:00,
2013-01-27 15:46:00,39.6,38.3,29.89,South,184,9.0,12.0,95,0.00,,,0.28,Wunderground v.1.15,2013-01-27 21:46:00,
2013-01-27 15:52:00,39.6,38.3,29.89,SW,216,8.0,10.0,95,0.00,,,0.28,Wunderground v.1.15,2013-01-27 21:52:00,
2013-01-27 15:58:00,39.7,38.4,29.89,SW,231,8.0,10.0,95,0.00,,,0.28,Wunderground v.1.15,2013-01-27 21:58:00,
2013-01-27 16:03:00,39.8,38.5,29.88,SW,221,7.0,15.0,95,0.00,,,0.28,Wunderground v.1.15,2013-01-27 22:03:00,
2013-01-27 16:09:00,39.9,38.6,29.88,SSW,207,8.0,15.0,95,0.00,,,0.28,Wunderground v.1.15,2013-01-27 22:09:00,
2013-01-27 16:15:00,40.0,38.7,29.88,South,186,7.0,9.0,95,0.00,,,0.28,Wunderground v.1.15,2013-01-27 22:15:00,
2013-01-27 16:21:00,40.3,39.0,29.87,West,272,7.0,8.0,95,0.00,,,0.28,Wunderground v.1.15,2013-01-27 22:21:00,
2013-01-27 16:26:00,40.4,39.1,29.86,SW,222,7.0,9.0,95,0.00,,,0.28,Wunderground v.1.15,2013-01-27 22:26:00,
2013-01-27 16:32:00,40.6,39.3,29.86,SSW,202,6.0,9.0,95,0.00,,,0.28,Wunderground v.1.15,2013-01-27 22:32:00,
2013-01-27 16:38:00,40.8,39.5,29.86,SSW,207,6.0,10.0,95,0.00,,,0.28,Wunderground v.1.15,2013-01-27 22:38:00,
2013-01-27 16:44:00,40.9,39.6,29.86,South,178,7.0,9.0,95,0.00,,,0.28,Wunderground v.1.15,2013-01-27 22:44:00,
2013-01-27 16:49:00,41.0,39.7,29.86,SW,228,7.0,9.0,95,0.00,,,0.28,Wunderground v.1.15,2013-01-27 22:49:00,
2013-01-27 16:55:00,41.2,39.9,29.86,WSW,245,6.0,8.0,95,0.00,,,0.28,Wunderground v.1.15,2013-01-27 22:55:00,
2013-01-27 17:01:00,41.3,40.0,29.86,SW,230,6.0,8.0,95,0.00,,,0.28,Wunderground v.1.15,2013-01-27 23:01:00,
2013-01-27 17:07:00,41.5,40.2,29.86,SW,219,6.0,8.0,95,0.00,,,0.28,Wunderground v.1.15,2013-01-27 23:07:00,
2013-01-27 17:13:00,41.4,40.1,29.86,SSW,213,5.0,8.0,95,0.00,,,0.28,Wunderground v.1.15,2013-01-27 23:13:00,
2013-01-27 17:19:00,41.5,40.2,29.86,SW,236,4.0,8.0,95,0.00,,,0.28,Wunderground v.1.15,2013-01-27 23:19:00,
2013-01-27 17:24:00,41.4,40.1,29.86,SW,221,4.0,8.0,95,0.00,,,0.28,Wunderground v.1.15,2013-01-27 23:24:00,
2013-01-27 17:29:00,41.1,39.5,29.85,SSW,213,4.0,8.0,94,0.00,,,0.28,Wunderground v.1.15,2013-01-27 23:29:00,
2013-01-27 17:35:00,40.9,39.6,29.86,SW,217,4.0,8.0,95,0.00,,,0.28,Wunderground v.1.15,2013-01-27 23:35:00,
2013-01-27 17:41:00,40.9,39.6,29.86,SW,220,3.0,4.0,95,0.00,,,0.28,Wunderground v.1.15,2013-01-27 23:41:00,
2013-01-27 17:46:00,40.8,39.5,29.85,SW,219,4.0,8.0,95,0.00,,,0.28,Wunderground v.1.15,2013-01-27 23:46:00,
2013-01-27 17:51:00,40.9,39.6,29.85,SSW,209,4.0,8.0,95,0.00,,,0.28,Wunderground v.1.15,2013-01-27 23:51:00,
2013-01-27 17:57:00,40.8,39.5,29.85,WSW,238,5.0,8.0,95,0.00,,,0.28,Wunderground v.1.15,2013-01-27 23:57:00,
2013-01-27 18:03:00,41.1,39.8,29.84,SW,223,5.0,8.0,95,0.00,,,0.28,Wunderground v.1.15,2013-01-28 00:03:00,
2013-01-27 18:09:00,41.3,40.0,29.85,WSW,246,6.0,8.0,95,0.00,,,0.28,Wunderground v.1.15,2013-01-28 00:09:00,
2013-01-27 18:14:00,41.7,40.4,29.85,WSW,246,6.0,8.0,95,0.00,,,0.28,Wunderground v.1.15,2013-01-28 00:14:00,
2013-01-27 18:20:00,41.6,40.3,29.85,WSW,238,6.0,10.0,95,0.00,,,0.28,Wunderground v.1.15,2013-01-28 00:20:00,
2013-01-27 18:26:00,42.0,40.7,29.85,SW,235,7.0,10.0,95,0.00,,,0.28,Wunderground v.1.15,2013-01-28 00:26:00,
2013-01-27 18:32:00,42.2,40.9,29.84,SW,226,7.0,8.0,95,0.00,,,0.28,Wunderground v.1.15,2013-01-28 00:32:00,
2013-01-27 18:38:00,42.2,40.9,29.84,SW,221,7.0,8.0,95,0.00,,,0.28,Wunderground v.1.15,2013-01-28 00:38:00,
2013-01-27 18:44:00,42.3,41.0,29.84,SW,229,5.0,8.0,95,0.00,,,0.28,Wunderground v.1.15,2013-01-28 00:44:00,
2013-01-27 18:50:00,42.4,41.1,29.84,SW,223,5.0,5.0,95,0.00,,,0.28,Wunderground v.1.15,2013-01-28 00:50:00,
2013-01-27 18:55:00,42.5,40.9,29.84,WSW,247,4.0,8.0,94,0.00,,,0.28,Wunderground v.1.15,2013-01-28 00:55:00,
2013-01-27 19:01:00,42.5,41.2,29.84,SW,228,5.0,8.0,95,0.00,,,0.28,Wunderground v.1.15,2013-01-28 01:01:00,
2013-01-27 19:07:00,42.4,40.8,29.83,SW,231,6.0,8.0,94,0.00,,,0.28,Wunderground v.1.15,2013-01-28 01:07:00,
2013-01-27 19:13:00,42.6,41.0,29.83,SW,234,7.0,8.0,94,0.00,,,0.28,Wunderground v.1.15,2013-01-28 01:13:00,
2013-01-27 19:19:00,42.9,41.6,29.83,WSW,252,7.0,10.0,95,0.00,,,0.28,Wunderground v.1.15,2013-01-28 01:19:00,
2013-01-27 19:24:00,43.5,42.2,29.83,WSW,239,9.0,11.0,95,0.00,,,0.28,Wunderground v.1.15,2013-01-28 01:24:00,
2013-01-27 19:30:00,43.9,42.3,29.83,WSW,251,9.0,9.0,94,0.00,,,0.28,Wunderground v.1.15,2013-01-28 01:30:00,
2013-01-27 19:36:00,43.9,42.3,29.83,WSW,247,9.0,10.0,94,0.00,,,0.28,Wunderground v.1.15,2013-01-28 01:36:00,
2013-01-27 19:41:00,43.9,42.3,29.84,West,259,9.0,9.0,94,0.00,,,0.28,Wunderground v.1.15,2013-01-28 01:41:00,
2013-01-27 19:47:00,43.8,41.9,29.83,WSW,252,8.0,10.0,93,0.00,,,0.28,Wunderground v.1.15,2013-01-28 01:47:00,
2013-01-27 19:53:00,43.8,41.9,29.83,WSW,238,8.0,9.0,93,0.00,,,0.28,Wunderground v.1.15,2013-01-28 01:53:00,
2013-01-27 19:58:00,43.8,42.2,29.83,WSW,244,9.0,11.0,94,0.00,,,0.28,Wunderground v.1.15,2013-01-28 01:58:00,
2013-01-27 20:04:00,43.7,41.8,29.84,WSW,258,8.0,9.0,93,0.00,,,0.28,Wunderground v.1.15,2013-01-28 02:04:00,
2013-01-27 20:09:00,44.1,42.5,29.86,West,263,6.0,9.0,94,0.00,,,0.28,Wunderground v.1.15,2013-01-28 02:09:00,
2013-01-27 20:15:00,44.6,43.0,29.86,West,278,6.0,8.0,94,0.00,,,0.28,Wunderground v.1.15,2013-01-28 02:15:00,
2013-01-27 20:21:00,44.7,43.1,29.86,West,267,5.0,8.0,94,0.00,,,0.28,Wunderground v.1.15,2013-01-28 02:21:00,
2013-01-27 20:27:00,44.1,42.2,29.86,West,267,4.0,8.0,93,0.00,,,0.28,Wunderground v.1.15,2013-01-28 02:27:00,
2013-01-27 20:32:00,44.0,42.1,29.87,West,268,4.0,8.0,93,0.00,,,0.28,Wunderground v.1.15,2013-01-28 02:32:00,
2013-01-27 20:38:00,44.1,42.5,29.88,West,268,3.0,8.0,94,0.00,,,0.28,Wunderground v.1.15,2013-01-28 02:38:00,
2013-01-27 20:44:00,44.5,42.9,29.88,West,268,3.0,8.0,94,0.00,,,0.28,Wunderground v.1.15,2013-01-28 02:44:00,
2013-01-27 20:51:00,45.1,43.5,29.87,West,268,5.0,8.0,94,0.00,,,0.28,Wunderground v.1.15,2013-01-28 02:51:00,
2013-01-27 20:57:00,45.4,43.8,29.88,WSW,254,6.0,8.0,94,0.00,,,0.28,Wunderground v.1.15,2013-01-28 02:57:00,
2013-01-27 21:03:00,45.6,44.0,29.87,WSW,254,6.0,8.0,94,0.00,,,0.28,Wunderground v.1.15,2013-01-28 03:03:00,
2013-01-27 21:09:00,45.9,44.3,29.87,WSW,254,6.0,8.0,94,0.00,,,0.28,Wunderground v.1.15,2013-01-28 03:09:00,
2013-01-27 21:14:00,46.1,44.5,29.87,WSW,252,6.0,8.0,94,0.00,,,0.28,Wunderground v.1.15,2013-01-28 03:14:00,
2013-01-27 21:20:00,46.5,44.9,29.87,WSW,254,7.0,7.0,94,0.00,,,0.28,Wunderground v.1.15,2013-01-28 03:20:00,
2013-01-27 21:26:00,46.7,45.1,29.87,WSW,258,6.0,8.0,94,0.00,,,0.28,Wunderground v.1.15,2013-01-28 03:26:00,
2013-01-27 21:33:00,47.2,45.6,29.87,WSW,257,6.0,8.0,94,0.00,,,0.28,Wunderground v.1.15,2013-01-28 03:33:00,
2013-01-27 21:39:00,47.8,46.2,29.87,West,261,7.0,9.0,94,0.00,,,0.28,Wunderground v.1.15,2013-01-28 03:39:00,
2013-01-27 21:45:00,48.0,46.1,29.86,West,259,7.0,8.0,93,0.00,,,0.28,Wunderground v.1.15,2013-01-28 03:45:00,
2013-01-27 21:51:00,48.3,46.4,29.86,WSW,253,6.0,8.0,93,0.00,,,0.28,Wunderground v.1.15,2013-01-28 03:51:00,
2013-01-27 21:57:00,48.5,46.6,29.86,West,278,7.0,8.0,93,0.00,,,0.28,Wunderground v.1.15,2013-01-28 03:57:00,
2013-01-27 22:02:00,49.1,47.2,29.86,West,273,7.0,13.0,93,0.00,,,0.28,Wunderground v.1.15,2013-01-28 04:02:00,
2013-01-27 22:08:00,49.6,47.7,29.86,West,264,8.0,13.0,93,0.00,,,0.28,Wunderground v.1.15,2013-01-28 04:08:00,
2013-01-27 22:14:00,50.0,48.1,29.86,West,261,9.0,12.0,93,0.00,,,0.28,Wunderground v.1.15,2013-01-28 04:14:00,
2013-01-27 22:20:00,50.2,48.0,29.86,West,264,8.0,8.0,92,0.00,,,0.28,Wunderground v.1.15,2013-01-28 04:20:00,
2013-01-27 22:25:00,50.3,48.1,29.87,West,259,7.0,11.0,92,0.00,,,0.28,Wunderground v.1.15,2013-01-28 04:25:00,
2013-01-27 22:31:00,50.3,48.1,29.86,West,264,7.0,8.0,92,0.00,,,0.28,Wunderground v.1.15,2013-01-28 04:31:00,
2013-01-27 22:37:00,50.4,48.2,29.86,West,264,8.0,11.0,92,0.00,,,0.28,Wunderground v.1.15,2013-01-28 04:37:00,
2013-01-27 22:43:00,50.5,48.3,29.86,West,269,8.0,9.0,92,0.00,,,0.28,Wunderground v.1.15,2013-01-28 04:43:00,
2013-01-27 22:48:00,50.6,48.4,29.86,West,270,7.0,9.0,92,0.00,,,0.28,Wunderground v.1.15,2013-01-28 04:48:00,
2013-01-27 22:54:00,50.8,48.6,29.86,West,273,7.0,9.0,92,0.00,,,0.28,Wunderground v.1.15,2013-01-28 04:54:00,
2013-01-27 23:00:00,50.7,48.5,29.86,NW,311,8.0,8.0,92,0.00,,,0.28,Wunderground v.1.15,2013-01-28 05:00:00,
2013-01-27 23:01:00,50.7,48.2,29.86,West,271,8.0,9.0,91,0.00,,,0.28,Wunderground v.1.15,2013-01-28 05:01:00,
2013-01-27 23:05:00,50.8,48.6,29.86,West,275,8.0,10.0,92,0.00,,,0.28,Wunderground v.1.15,2013-01-28 05:05:00,
2013-01-27 23:11:00,50.8,48.6,29.86,WNW,286,8.0,9.0,92,0.00,,,0.28,Wunderground v.1.15,2013-01-28 05:11:00,
2013-01-27 23:16:00,50.8,48.6,29.86,NW,306,8.0,9.0,92,0.00,,,0.28,Wunderground v.1.15,2013-01-28 05:16:00,
2013-01-27 23:22:00,50.9,48.7,29.86,West,259,9.0,9.0,92,0.00,,,0.28,Wunderground v.1.15,2013-01-28 05:22:00,
2013-01-27 23:25:00,50.9,48.7,29.86,WSW,257,9.0,12.0,92,0.00,,,0.28,Wunderground v.1.15,2013-01-28 05:25:00,
2013-01-27 23:31:00,51.0,48.8,29.86,West,278,9.0,9.0,92,0.00,,,0.28,Wunderground v.1.15,2013-01-28 05:31:00,
2013-01-27 23:37:00,51.1,48.9,29.86,West,261,9.0,9.0,92,0.00,,,0.28,Wunderground v.1.15,2013-01-28 05:37:00,
2013-01-27 23:42:00,51.3,49.1,29.87,West,263,9.0,11.0,92,0.00,,,0.28,Wunderground v.1.15,2013-01-28 05:42:00,
2013-01-27 23:48:00,51.3,48.8,29.87,WSW,256,9.0,12.0,91,0.00,,,0.28,Wunderground v.1.15,2013-01-28 05:48:00,
2013-01-27 23:54:00,51.3,48.8,29.87,West,269,9.0,11.0,91,0.00,,,0.28,Wunderground v.1.15,2013-01-28 05:54:00,
2013-01-27 23:59:00,51.2,49.0,29.87,West,262,9.0,11.0,92,0.00,,,0.28,Wunderground v.1.15,2013-01-28 05:59:00,